Weather reports worldwide

Advertisment
Mte.Calamita, Italy (16197): temperature & dewpoint: 14.10.2018 16:00:00 - 20.10.2018 16:00:00 (CEST)Mte.Calamita, Italy (16197): wind speed: 14.10.2018 16:00:00 - 20.10.2018 16:00:00 (CEST)Mte.Calamita, Italy (16197): wind direction: 14.10.2018 16:00:00 - 20.10.2018 16:00:00 (CEST)Mte.Calamita, Italy (16197): reduced air pressure: 14.10.2018 16:00:00 - 20.10.2018 16:00:00 (CEST)Mte.Calamita, Italy (16197): visibility: 14.10.2018 16:00:00 - 20.10.2018 16:00:00 (CEST)Mte.Calamita, Italy (16197): sunshine duration: 14.10.2018 16:00:00 - 20.10.2018 16:00:00 (CEST)
Date & Time tt [°C] td [°C] ff [km/h] ff [kn] dd ppp [hPa] vv [km] sd [min]
20.10.2018 16:00:00 - - - - - - - -
20.10.2018 15:00:00 22,0 11,0 4 2 N - 10 -
20.10.2018 14:00:00 21,8 11,2 4 2 NNE 1019,6 20 60
20.10.2018 13:00:00 21,0 11,0 2 1 NNW - 10 -
20.10.2018 12:00:00 20,0 11,0 5 3 NE - 10 -
20.10.2018 11:00:00 18,2 10,6 9 5 ESE 1020,1 20 60
20.10.2018 10:00:00 17,0 12,0 11 6 ENE - 10 -
20.10.2018 09:00:00 16,0 11,0 4 2 E - 10 -
20.10.2018 08:00:00 16,2 9,7 5 3 ENE 1018,6 20 0
20.10.2018 07:00:00 17,0 11,0 9 5 E - 10 -
20.10.2018 06:00:00 - - - - - - - -
20.10.2018 05:00:00 - - - - - - - -
20.10.2018 04:00:00 - - - - - - - -
20.10.2018 03:00:00 - - - - - - - -
20.10.2018 02:00:00 - - - - - - - -
20.10.2018 01:00:00 - - - - - - - -
20.10.2018 00:00:00 - - - - - - - -
19.10.2018 23:00:00 - - - - - - - -
19.10.2018 22:00:00 - - - - - - - -
19.10.2018 21:00:00 - - - - - - - -
19.10.2018 20:00:00 19,2 13,6 2 1 NNW 1015,7 10 0
19.10.2018 19:00:00 19,0 15,0 4 2 NNW - 10 -
19.10.2018 18:00:00 20,0 18,0 4 2 NNW - 10 -
19.10.2018 17:00:00 21,2 17,2 4 2 WNW 1014,5 20 60
19.10.2018 16:00:00 21,0 17,0 4 2 NNW - 10 -
19.10.2018 15:00:00 22,0 17,0 4 2 NNW - 10 -
19.10.2018 14:00:00 21,8 16,3 2 1 NNE 1015,0 20 60
19.10.2018 13:00:00 21,0 16,0 4 2 NNE - 10 -
19.10.2018 12:00:00 20,0 15,0 4 2 N - 10 -
19.10.2018 11:00:00 19,0 15,5 4 2 NNE 1015,3 20 60
19.10.2018 10:00:00 18,0 15,0 2 1 NNE - 10 -
19.10.2018 09:00:00 17,0 15,0 2 1 NE - 10 -
19.10.2018 08:00:00 16,8 15,0 9 5 SSE 1014,0 20 0
19.10.2018 07:00:00 17,0 14,0 9 5 SSE - 10 -
19.10.2018 06:00:00 - - - - - - - -
19.10.2018 05:00:00 - - - - - - - -
19.10.2018 04:00:00 - - - - - - - -
19.10.2018 03:00:00 - - - - - - - -
19.10.2018 02:00:00 - - - - - - - -
19.10.2018 01:00:00 - - - - - - - -
19.10.2018 00:00:00 - - - - - - - -
18.10.2018 23:00:00 - - - - - - - -
18.10.2018 22:00:00 - - - - - - - -
18.10.2018 21:00:00 - - - - - - - -
18.10.2018 20:00:00 19,0 15,9 2 1 NNW 1011,5 10 0
18.10.2018 19:00:00 20,0 18,0 2 1 N - 10 -
18.10.2018 18:00:00 21,0 19,0 2 1 NNW - 10 -
18.10.2018 17:00:00 22,0 18,4 2 1 NNW 1011,0 20 60
18.10.2018 16:00:00 22,0 18,0 4 2 NNE - 10 -
18.10.2018 15:00:00 22,0 17,0 2 1 N - 10 -
18.10.2018 14:00:00 21,0 16,8 2 1 NNE 1012,2 30 60
18.10.2018 13:00:00 21,0 17,0 2 1 N - 10 -
18.10.2018 12:00:00 19,0 17,0 5 3 NNE - 10 -
18.10.2018 11:00:00 17,6 15,6 11 6 N 1012,9 20 60
18.10.2018 10:00:00 17,0 15,0 15 8 ENE - 10 -
18.10.2018 09:00:00 16,0 14,0 13 7 ENE - 10 -
18.10.2018 08:00:00 16,2 14,2 13 7 NE 1013,0 15 0
18.10.2018 07:00:00 16,0 14,0 13 7 NNE - 10 -
18.10.2018 06:00:00 - - - - - - - -
18.10.2018 05:00:00 - - - - - - - -
18.10.2018 04:00:00 - - - - - - - -
18.10.2018 03:00:00 - - - - - - - -
18.10.2018 02:00:00 - - - - - - - -
18.10.2018 01:00:00 - - - - - - - -
18.10.2018 00:00:00 - - - - - - - -
17.10.2018 23:00:00 - - - - - - - -
17.10.2018 22:00:00 - - - - - - - -
17.10.2018 21:00:00 - - - - - - - -
17.10.2018 20:00:00 18,0 16,0 8 4 SSE 1013,7 10 0
17.10.2018 19:00:00 18,0 16,0 13 7 SSE - 10 -
17.10.2018 18:00:00 18,0 16,0 13 7 ESE - 10 -
17.10.2018 17:00:00 17,4 15,4 18 10 SSE 1013,8 10 0
17.10.2018 16:00:00 17,0 15,0 18 10 ESE - 10 -
17.10.2018 15:00:00 17,0 15,0 18 10 SSE - 5 -
17.10.2018 14:00:00 17,8 15,8 13 7 ESE 1015,0 0,4 0
17.10.2018 13:00:00 18,0 16,0 15 8 E - 7 -
17.10.2018 12:00:00 18,0 16,0 21 11 SSE - 0,4 -
17.10.2018 11:00:00 17,6 15,8 15 8 SSE 1015,6 0,2 0
17.10.2018 10:00:00 17,0 15,0 18 10 SSE - 5 -
17.10.2018 09:00:00 17,0 15,0 22 12 SSE - 7 -
17.10.2018 08:00:00 17,0 15,2 26 14 ESE 1015,3 5 0
17.10.2018 07:00:00 17,0 15,0 15 8 ESE - 10 -
17.10.2018 06:00:00 - - - - - - - -
17.10.2018 05:00:00 - - - - - - - -
17.10.2018 04:00:00 - - - - - - - -
17.10.2018 03:00:00 - - - - - - - -
17.10.2018 02:00:00 - - - - - - - -
17.10.2018 01:00:00 - - - - - - - -
17.10.2018 00:00:00 - - - - - - - -
16.10.2018 23:00:00 - - - - - - - -
16.10.2018 22:00:00 - - - - - - - -
16.10.2018 21:00:00 - - - - - - - -
16.10.2018 20:00:00 17,2 16,4 15 8 SE 1015,8 0,2 0
16.10.2018 19:00:00 17,0 16,0 22 12 ESE - 10 -
16.10.2018 18:00:00 18,0 17,0 4 2 ESE - 8 -
16.10.2018 17:00:00 18,0 17,0 9 5 ESE 1015,8 7 0
16.10.2018 16:00:00 18,0 17,0 11 6 ESE - 8 -
16.10.2018 15:00:00 18,0 17,0 9 5 SSE - 8 -
16.10.2018 14:00:00 17,2 16,7 9 5 E 1015,9 8 0
16.10.2018 13:00:00 17,0 17,0 11 6 ESE - 7 -
16.10.2018 12:00:00 17,0 17,0 15 8 SSE - 5 -
16.10.2018 11:00:00 17,8 17,8 8 4 ESE 1015,8 5 0
16.10.2018 10:00:00 18,0 17,0 13 7 ESE - 8 -
16.10.2018 09:00:00 18,0 17,0 13 7 ESE - 10 -
16.10.2018 08:00:00 18,0 16,0 11 6 ESE 1014,9 10 0
16.10.2018 07:00:00 18,0 16,0 9 5 SSE - 10 -
16.10.2018 06:00:00 - - - - - - - -
16.10.2018 05:00:00 - - - - - - - -
16.10.2018 04:00:00 - - - - - - - -
16.10.2018 03:00:00 - - - - - - - -
16.10.2018 02:00:00 - - - - - - - -
16.10.2018 01:00:00 - - - - - - - -
16.10.2018 00:00:00 - - - - - - - -
15.10.2018 23:00:00 - - - - - - - -
15.10.2018 22:00:00 - - - - - - - -
15.10.2018 21:00:00 - - - - - - - -
15.10.2018 20:00:00 18,2 13,3 0 0 N 1015,3 10 0
15.10.2018 19:00:00 19,0 15,0 0 0 N - 10 -
15.10.2018 18:00:00 20,0 17,0 0 0 N - 10 -
15.10.2018 17:00:00 21,6 16,6 0 0 N 1014,2 10 60
15.10.2018 16:00:00 21,0 16,0 8 4 S - 10 -
15.10.2018 15:00:00 20,0 16,0 5 3 S - 10 -
15.10.2018 14:00:00 21,0 14,7 9 5 S 1014,7 10 48
15.10.2018 13:00:00 20,0 14,0 8 4 SSW - 10 -
15.10.2018 12:00:00 19,0 15,0 0 0 N - 10 -
15.10.2018 11:00:00 17,8 13,3 0 0 N 1014,8 10 0
15.10.2018 10:00:00 16,0 13,0 11 6 SSE - 10 -
15.10.2018 09:00:00 15,0 13,0 13 7 SSE - 10 -
15.10.2018 08:00:00 15,0 12,5 13 7 SSE 1015,0 10 0
15.10.2018 07:00:00 15,0 14,0 0 0 N - 10 -
15.10.2018 06:00:00 - - - - - - - -
15.10.2018 05:00:00 - - - - - - - -
15.10.2018 04:00:00 - - - - - - - -
15.10.2018 03:00:00 - - - - - - - -
15.10.2018 02:00:00 - - - - - - - -
15.10.2018 01:00:00 - - - - - - - -
15.10.2018 00:00:00 - - - - - - - -
14.10.2018 23:00:00 - - - - - - - -
14.10.2018 22:00:00 - - - - - - - -
14.10.2018 21:00:00 - - - - - - - -
14.10.2018 20:00:00 17,0 16,0 0 0 N 1015,7 10 0
14.10.2018 19:00:00 17,0 13,0 0 0 N - 10 -
14.10.2018 18:00:00 21,0 17,0 0 0 N - 10 -
14.10.2018 17:00:00 21,0 14,9 0 0 N 1015,2 10 60
14.10.2018 16:00:00 21,0 16,0 0 0 N - 10 -

tt = temperature
td = dewpoint
ff = wind speed
dd = wind direction
ppp = reduced air pressure
vv = visibility
sd = sunshine duration

Next stations